Regional Weather Roundup
Issued by NWS

Home | Current Version | Previous Version | Graphics & Text | Print | Product List | Glossary On
Versions: 1 2 3 4 5 6 7 8 9 10 11 12 13 14 15 16 17 18 19 20 21 22 23 24 25 26 27 28 29 30 31 32 33 34 35 36 37 38 39 40 41 42 43 44 45 46 47 48 49 50
000
ASUS43 KBIS 231902
RWRND

NORTH DAKOTA REGIONAL WEATHER ROUNDUP
NATIONAL WEATHER SERVICE BISMARCK ND
200 PM CDT SAT JUL 23 2016

NOTE: "FAIR" INDICATES FEW OR NO CLOUDS BELOW 12,000 FEET WITH NO
SIGNIFICANT WEATHER AND/OR OBSTRUCTIONS TO VISIBILITY.


NDZ001>003-009>011-017-232000-
NORTHWEST NORTH DAKOTA

CITY           SKY/WX    TMP DP  RH WIND       PRES   REMARKS
WILLISTON      MOSUNNY   81  48  31 W18G30    29.83S
MINOT          PTSUNNY   79  66  64 SW9       29.78F
MINOT AFB      MOSUNNY   76  67  74 W9        29.76F
$$

NDZ018>021-031>035-040>046-232000-
SOUTHWEST NORTH DAKOTA

CITY           SKY/WX    TMP DP  RH WIND       PRES   REMARKS
BISMARCK       CLOUDY    80  68  66 W18G24    29.79S
DICKINSON      SUNNY     78  49  35 NW16G26   29.88R
GARRISON         N/A     76  67  73 NW14G20   29.81S
HETTINGER ARPT SUNNY     84  49  29 N18G32    29.91R
$$

NDZ004>008-012>016-024-026-027-054-232000-
NORTHEAST NORTH DAKOTA

CITY           SKY/WX    TMP DP  RH WIND       PRES   REMARKS
GRAND FORKS    CLOUDY    68  65  90 E17       29.69F THUNDER
GRND FRKS AFB  CLOUDY    67  67 100 E12       29.71R
DEVILS LAKE    CLOUDY    73  67  81 SE10      29.74R
$$

NDZ022-023-025-028>030-036>039-047>053-232000-
SOUTHEAST NORTH DAKOTA

CITY           SKY/WX    TMP DP  RH WIND       PRES   REMARKS
FARGO          PTSUNNY   73  68  84 E20G25    29.76F
JAMESTOWN      CLOUDY    77  68  73 SE12      29.74S
$$





USA.gov is the U.S. government's official web portal to all federal, state and local government web resources and services.